TIGRISAT

Last updated on Wed Nov 05 2025 00:03:48 GMT+0000 (Coordinated Universal Time)

1 40043U 14033AK 25308.40301940 .00002576 00000+0 30972-3 0 9994 2 40043 97.7540 99.1804 0051797 91.9756 268.7391 14.83837543612272
UTC large
Height (km)
Speed (km/s)
/
Latitude / Longitude
Inclination (degrees)
Orbital Period (minutes)
Azimuth
Elevation
Range (km)
Doppler Factor

Next 0 passes for location: London (51.5072 / 0.1276)

Sorry there are no passes over London.